Погода в Никольском

Россия / Томская область     57°11′40″N   84°21′52″E
темп.,
°C
ветер,
м/с
пор.,
м/с
влажн.,
%
обл.,
%
осадки,
мм/ч
давл.,
гПа
погр.,
м
22 января, сб
сб2201:00−21вюв1110060 0.0 10339
04:00−21вюв00100100 0.0 10339
07:00−20ссв00100100 0.0 10349
10:00−19вюв1199100 0.0 103424
13:00−12юв1192100 0.0 1034109
16:00−11зсз0095100 0.0 103323
19:00−15зсз0098100 0.0 10349
22:00−16з0098100 0.0 10359
23 января, вс
вс2301:00−17з1198100 0.0 10359
04:00−18зюз1199100 0.0 10349
07:00−16зюз1197100 0.0 103540
10:00−15зюз1298100 0.1 103541
13:00−14з2391100 0.1 1035145
16:00−12зсз1291100 0.0 1035228
19:00−17ссз1110073 0.2 10369
22:00−22ссз22100100 0.0 103710
24 января, пн
пн2401:00−24ссз11100100 0.0 103810
04:00−25сз11100100 0.0 10389
07:00−25сз11100100 0.0 10399
10:00−25зюз1110089 0.0 104010
13:00−17юз129582 0.0 1040118
16:00−14юз139380 0.0 1040144
19:00−15юз2397100 0.0 104069
22:00−17ююз2398100 0.0 104058
25 января, вт
вт2501:00−19ююз239998 0.0 103946
04:00−22ююз2310083 0.0 103940
07:00−18ююз239878 0.1 103870
10:00−18ююз239973 0.1 103873
13:00−15ююз239392 0.1 1038206
16:00−14ю239589 0.0 1037184
19:00−20ю2210070 0.1 103816
22:00−24ю2210061 0.0 103819
26 января, ср
ср2601:00−25ю1110087 0.0 103818
04:00−25ю2210098 0.0 103832
07:00−26ююв1110094 0.0 103921
10:00−27ююв1110085 0.0 103921
13:00−18ююв129459 0.0 1038125
16:00−15юв119426 0.0 103898
19:00−21всв1110030 0.0 10389
22:00−23в1110057 0.0 10399